EW4529 Weather Reports


Display with metric or nautical units.
time (UTC)temp
F
wind
direction
speed
MPH
gust
MPH
rain 1hr
in
rain 24hr
in
rain mn
in
humidity
%
barometer
mb
20260507214331 66 3 1.0 5.0 0.00 0.21 0.13 35 1008.2
20260507213313 67 275 0.0 2.0 0.00 0.21 0.13 36 1008.2
20260507212310 67 14 0.0 2.0 0.00 0.21 0.13 35 1008.1
20260507211314 67 349 2.0 4.0 0.00 0.21 0.13 33 1008.2
20260507210319 67 40 1.0 6.0 0.00 0.21 0.13 33 1008.0
20260507205341 68 326 1.0 6.0 0.00 0.21 0.13 34 1007.9
20260507204320 69 292 1.0 3.0 0.00 0.21 0.13 34 1007.8
20260507203316 68 151 0.0 2.0 0.00 0.21 0.13 36 1007.9
20260507202317 67 353 3.0 7.0 0.00 0.21 0.13 34 1008.1
20260507201320 68 11 0.0 5.0 0.00 0.21 0.13 34 1007.9
20260507200312 68 356 3.0 7.0 0.00 0.21 0.13 33 1008.2
20260507195333 68 53 1.0 6.0 0.00 0.21 0.13 35 1008.3
20260507194317 68 269 1.0 5.0 0.00 0.21 0.13 35 1008.3
20260507193313 69 339 1.0 6.0 0.00 0.21 0.13 35 1008.4
20260507192315 68 9 3.0 8.0 0.00 0.21 0.13 34 1008.6
20260507191337 68 16 1.0 7.0 0.00 0.21 0.13 36 1008.7
20260507190316 68 291 1.0 3.0 0.00 0.21 0.13 35 1008.9
20260507023315 65 306 0.0 0.0 0.06 0.18 0.18 91 1009.1
20260507022311 65 307 0.0 0.0 0.06 0.18 0.18 90 1008.9
20260507021310 66 30 0.0 1.0 0.02 0.14 0.14 87 1009.0
20260507020314 66 175 0.0 0.0 0.00 0.12 0.12 86 1009.0
20260507015317 66 161 0.0 0.0 0.00 0.12 0.12 85 1008.8
20260507014311 66 165 0.0 2.0 0.00 0.12 0.12 85 1008.9
20260507013312 66 180 0.0 4.0 0.00 0.12 0.12 85 1008.8
20260507012310 66 304 0.0 1.0 0.00 0.12 0.12 84 1008.8
20260507011312 66 56 0.0 1.0 0.00 0.12 0.12 84 1008.6
20260507010316 66 18 0.0 3.0 0.00 0.12 0.12 84 1008.7
20260507005338 66 56 0.0 2.0 0.00 0.12 0.12 84 1008.9
20260507004340 66 10 0.0 1.0 0.00 0.12 0.12 84 1008.7
20260507003317 66 165 0.0 1.0 0.00 0.12 0.12 84 1008.3
20260507002320 67 172 0.0 1.0 0.00 0.12 0.12 83 1008.3
20260507001325 67 118 0.0 0.0 0.00 0.12 0.12 83 1008.2
20260507000321 67 118 0.0 1.0 0.00 0.12 0.12 82 1008.1
20260506235322 68 141 0.0 2.0 0.00 0.12 0.12 81 1008.1
20260506234325 68 244 0.0 5.0 0.00 0.12 0.12 80 1008.1
20260506233320 68 27 0.0 3.0 0.00 0.12 0.12 79 1008.0
20260506232325 68 346 0.0 2.0 0.00 0.12 0.12 79 1007.8
20260506231326 68 147 0.0 3.0 0.00 0.12 0.12 78 1007.9
20260506230350 69 72 0.0 5.0 0.00 0.12 0.12 78 1008.0
20260506225310 69 139 0.0 3.0 0.00 0.12 0.12 77 1008.0
20260506224312 69 320 1.0 6.0 0.00 0.12 0.12 77 1007.8
20260506223317 70 3 0.0 4.0 0.00 0.12 0.12 76 1008.0
20260506222341 70 98 0.0 2.0 0.00 0.12 0.12 76 1007.8
20260506221322 70 10 0.0 2.0 0.00 0.12 0.12 77 1007.8
20260506220340 70 108 0.0 3.0 0.00 0.12 0.12 77 1007.9
20260506215322 70 295 1.0 4.0 0.00 0.12 0.12 76 1007.7